[[{"header":{"parameterUnit":"m.s-1","parameterCategory":1,"la1":30.2991,"la2":30.254,"lo1":-89.0895,"lo2":-89.0444,"dy":0.0017,"dx":0.0017,"nx":28,"ny":28,"refTime":"2025-05-21T09:00:00:Z","depth":0,"parameterNumber":2,"parameterNumberName":"U-component_of_WINDS"},"data":[0,0,0,0,0,0,0,0,0,0,0,0,0,0,0,0,0,0,0,0,0,0,0,0,0,0,0,0,0,0,0,0,0,0,0,0,0,0,0,0,0,0,0,0,0,0,0,0,0,0,0,0,0,0,0,0,0,0,2.2407,2.2408,0,2.2472,2.2472,2.2473,2.2458,2.2457,2.2455,2.2454,2.2523,2.2526,2.2529,0,0,0,0,0,0,0,0,0,0,0,0,0,2.2272,2.2274,2.2407,2.2408,2.2409,2.2472,2.2472,2.2473,2.2458,2.2457,2.2455,2.2454,2.2522,2.2526,2.253,0,0,0,0,0,0,0,0,0,0,0,0,0,2.2333,2.2275,2.2407,2.2409,2.2409,2.2471,2.2473,2.2474,2.2458,2.2457,2.2455,2.2453,2.2521,2.2526,2.253,2.2595,0,0,2.2544,2.2546,0,0,0,0,0,0,0,0,2.233,2.2338,2.2408,2.2409,2.241,2.2455,2.245,2.2515,2.2459,2.244,2.2454,2.2452,2.2502,2.2508,2.2525,2.2599,2.2602,2.2544,2.2547,2.2549,2.255,0,0,0,0,0,0,0,2.2325,2.2335,2.2433,2.2409,2.241,2.2406,2.2413,2.2462,2.2481,2.2441,2.244,2.2448,2.2503,2.252,2.2526,2.2603,2.2544,2.2548,2.2551,2.2553,2.2731,2.2733,0,0,0,0,0,0,2.232,2.2332,2.2431,2.2435,2.2364,2.241,2.2418,2.2442,2.248,2.2484,2.245,2.2447,2.2513,2.2521,2.2528,2.2605,2.2549,2.2553,2.2556,2.2729,2.2731,2.2734,0,0,0,0,0,0,2.2317,2.2329,2.2428,2.2383,2.2395,2.2415,2.2442,2.2444,2.2462,2.2486,2.249,2.2464,2.2512,2.2522,2.2578,2.2608,2.2555,2.2559,2.2726,2.273,2.2732,2.2761,0,0,0,0,0,0,2.2313,2.2328,2.2353,2.2384,2.2398,2.2476,2.2444,2.2447,2.247,2.2467,2.2501,2.2505,2.2512,2.2571,2.2583,2.2613,2.2563,2.2724,2.2728,2.2731,2.2757,2.2764,2.2771,0,0,0,0,0,2.2309,2.236,2.2354,2.2366,2.2429,2.2478,2.2486,2.2492,2.2472,2.2497,2.2512,2.2504,2.2603,2.2577,2.259,2.2622,2.2722,2.2727,2.2731,2.2754,2.2763,2.277,0,0,0,0,0,0,2.2334,2.2364,2.2358,2.2421,2.2447,2.2475,2.2507,2.2501,2.2534,2.2531,2.2537,2.2545,2.2601,2.2618,2.2589,2.2686,2.266,2.2667,2.2673,2.2681,2.2688,2.2682,2.2567,0,0,0,0,0,2.2346,2.2383,2.2407,2.246,2.2473,2.2488,2.251,2.2511,2.2539,2.255,2.257,2.2598,2.2635,2.2659,2.2695,2.276,2.2766,2.2788,2.2794,2.28,2.2806,2.2839,2.2848,2.2748,2.2748,2.2748,0,0,2.2373,2.2394,2.2417,2.2466,2.2486,2.2523,2.2498,2.2539,2.2567,2.2557,2.261,2.2625,2.2657,2.2717,2.2744,2.2732,2.2835,2.2806,2.281,2.2813,2.2844,2.2854,2.2862,2.2752,2.2751,2.2751,0,0,2.2441,2.2461,2.2505,2.2526,2.2556,2.2565,2.2576,2.2605,2.2614,2.2667,2.266,2.2694,2.2758,2.278,2.2799,2.2873,2.2865,2.2884,2.2919,2.2951,2.2958,2.2965,2.299,2.2998,2.289,2.289,2.2891,0,2.247,2.2526,2.253,2.2571,2.2592,2.2583,2.2628,2.2648,2.2689,2.2704,2.2689,2.2768,2.2789,2.2852,2.2869,2.2887,2.2898,2.288,2.2957,2.2964,2.2971,2.2994,2.3003,2.2892,2.2892,2.2892,2.2892,0,2.256,2.2598,2.2631,2.2668,2.2693,2.2736,2.2746,2.2771,2.2771,2.2781,2.2834,2.2859,2.2898,2.2913,2.2914,2.2977,2.2968,2.2955,2.2929,2.2982,2.3003,2.3013,2.2895,2.2894,2.2894,2.2893,0,0,2.2646,2.2683,2.2694,2.271,2.2742,2.2772,2.2815,2.2851,2.2871,2.29,2.2935,2.2988,2.2976,2.2998,2.3001,2.303,2.3083,2.3013,2.3014,2.3024,2.3151,2.3159,2.3169,2.3079,2.3081,2.3082,2.3148,0,2.2714,2.2787,2.279,2.2857,2.2891,2.2883,2.2919,2.2943,2.2953,2.2985,2.2997,2.3034,2.3016,2.3029,2.3056,2.3071,2.3108,2.3066,2.3111,2.3112,2.3101,2.3181,2.319,2.3251,2.3156,2.3158,2.3159,0,2.2804,2.2833,2.2902,2.2926,2.2941,2.2974,2.3006,2.3036,2.3063,2.3068,2.3092,2.309,2.3133,2.3106,2.3164,2.3135,2.3153,2.3163,2.3166,2.3169,2.3138,2.3184,2.327,2.3279,2.3173,2.3172,2.3171,0,2.2857,2.2913,2.2961,2.2975,2.3006,2.3028,2.3042,2.3066,2.3087,2.3116,2.313,2.3164,2.3183,2.3209,2.3217,2.3196,2.3274,2.3248,2.3279,2.3279,2.3295,2.3294,2.3384,2.331,2.331,2.331,2.331,0,2.2932,2.2974,2.2984,2.3014,2.306,2.3064,2.311,2.3123,2.3144,2.3175,2.3171,2.3201,2.3209,2.3241,2.3247,2.3293,2.3302,2.3308,2.3308,2.3307,2.3306,2.3318,2.3313,2.3312,2.3312,2.3311,2.3311,0,2.2999,2.3008,2.3058,2.3082,2.3089,2.3122,2.3143,2.3171,2.318,2.322,2.3229,2.3244,2.328,2.329,2.3335,2.3339,2.3393,2.3391,2.3383,2.3383,2.3412,2.3409,2.3512,2.3525,2.3444,2.3445,2.3446,0,2.3046,2.3077,2.3104,2.3123,2.3138,2.317,2.3191,2.3196,2.3217,2.3248,2.3272,2.3307,2.3336,2.3394,2.3409,2.3443,2.344,2.3474,2.3446,2.3442,2.3438,2.3436,2.3438,2.3479,2.348,2.3481,2.3481,0,2.3127,2.3129,2.3158,2.3188,2.3212,2.3237,2.3261,2.3277,2.3286,2.331,2.3346,2.3368,2.3411,2.3446,2.3479,2.3494,2.3489,2.349,2.3499,2.3497,2.349,2.3492,2.3396,2.3488,2.3487,2.3487,2.3486,2.3486,2.3184,2.321,2.3232,2.3264,2.3282,2.3303,2.333,2.3341,2.3371,2.3406,2.3407,2.3446,2.3469,2.3513,2.3529,2.356,2.355,2.3563,2.3566,2.3569,2.357,2.3486,2.3566,2.3566,2.3566,2.3566,2.3566,0,2.3263,2.3276,2.3305,2.3337,2.3362,2.3353,2.3378,2.34,2.3433,2.3455,2.3482,2.3523,2.3556,2.3573,2.3606,2.3626,2.3625,2.3635,2.3632,2.3635,2.3578,2.3566,2.3635,2.3635,2.3635,2.3635,2.3635,2.3635,2.3307,2.335,2.3355,2.3407,2.342,2.3456,2.3471,2.349,2.3507,2.3552,2.3578,2.3589,2.3609,2.3642,2.3672,2.3676,2.3688,2.3699,2.3701,2.3647,2.364,2.3633,2.3622,2.3702,2.3702,2.3756,2.3756,2.3757]},{"header":{"parameterUnit":"m.s-1","parameterCategory":1,"la1":30.2991,"la2":30.254,"lo1":-89.0895,"lo2":-89.0444,"dy":0.0017,"dx":0.0017,"nx":28,"ny":28,"refTime":"2025-05-21T09:00:00:Z","depth":0,"parameterNumber":3,"parameterNumberName":"V-component_of_WINDS"},"data":[0,0,0,0,0,0,0,0,0,0,0,0,0,0,0,0,0,0,0,0,0,0,0,0,0,0,0,0,0,0,0,0,0,0,0,0,0,0,0,0,0,0,0,0,0,0,0,0,0,0,0,0,0,0,0,0,0,0,2.7177,2.7178,0,2.7326,2.7328,2.7329,2.7362,2.7361,2.736,2.7359,2.7507,2.7512,2.7517,0,0,0,0,0,0,0,0,0,0,0,0,0,2.6915,2.6919,2.7177,2.7179,2.718,2.7326,2.7328,2.733,2.7362,2.7361,2.7359,2.7358,2.7505,2.7511,2.7517,0,0,0,0,0,0,0,0,0,0,0,0,0,2.7043,2.6921,2.7176,2.7214,2.7219,2.7325,2.7328,2.733,2.7362,2.7361,2.7359,2.7357,2.7503,2.7511,2.7518,2.7596,0,0,2.7541,2.7544,0,0,0,0,0,0,0,0,2.7035,2.7052,2.7207,2.7212,2.7217,2.7324,2.729,2.7419,2.7363,2.7308,2.7358,2.7357,2.7447,2.7459,2.749,2.7603,2.7609,2.7541,2.7546,2.7549,2.7551,0,0,0,0,0,0,0,2.7026,2.7046,2.7236,2.7209,2.7215,2.7222,2.7238,2.7315,2.7384,2.7312,2.7315,2.7332,2.7449,2.7483,2.7494,2.7612,2.7541,2.7548,2.7552,2.7555,2.7796,2.7798,0,0,0,0,0,0,2.7012,2.7038,2.7231,2.724,2.7121,2.7228,2.7246,2.7291,2.7384,2.7396,2.7334,2.7333,2.7471,2.7485,2.7499,2.7597,2.7549,2.7556,2.756,2.7794,2.7796,2.7798,0,0,0,0,0,0,2.7006,2.7029,2.7225,2.714,2.7166,2.7234,2.7284,2.7295,2.7329,2.74,2.7412,2.7356,2.747,2.7489,2.7572,2.7603,2.7559,2.7566,2.7791,2.7794,2.7797,2.7793,0,0,0,0,0,0,2.6998,2.7026,2.7058,2.7141,2.717,2.7296,2.7286,2.7299,2.7342,2.7343,2.7424,2.7435,2.7471,2.7561,2.7579,2.7612,2.7572,2.7789,2.7793,2.7796,2.7791,2.7796,2.78,0,0,0,0,0,2.6989,2.705,2.7059,2.7082,2.7211,2.7298,2.7315,2.7355,2.7344,2.7376,2.7422,2.7433,2.7596,2.7569,2.759,2.7626,2.7787,2.7792,2.7796,2.7789,2.7795,2.7799,0,0,0,0,0,0,2.6967,2.7061,2.7073,2.7162,2.7222,2.7303,2.7344,2.736,2.7423,2.7421,2.7468,2.7486,2.7566,2.7604,2.7572,2.7706,2.7691,2.77,2.7678,2.7685,2.7689,2.7678,2.7578,0,0,0,0,0,2.6972,2.7037,2.7115,2.7187,2.7216,2.7275,2.7315,2.7341,2.7404,2.7429,2.7481,2.754,2.7605,2.7647,2.7711,2.7796,2.7814,2.7831,2.7835,2.7839,2.7846,2.7894,2.7902,2.7813,2.7812,2.7812,0,0,2.6984,2.7044,2.7082,2.7184,2.7233,2.7298,2.7296,2.7364,2.7412,2.7439,2.7521,2.7561,2.7631,2.7715,2.7755,2.775,2.7874,2.7844,2.7846,2.7852,2.7899,2.7907,2.7915,2.7815,2.7815,2.7814,0,0,2.704,2.7092,2.7157,2.7207,2.7282,2.7321,2.7337,2.7416,2.7444,2.7528,2.755,2.7606,2.7717,2.7766,2.7805,2.7879,2.7891,2.7898,2.7921,2.7967,2.7974,2.7981,2.8007,2.8016,2.7905,2.7905,2.7905,0,2.7045,2.7144,2.7188,2.7256,2.73,2.7329,2.7395,2.744,2.7532,2.7561,2.7554,2.7694,2.7743,2.7839,2.7857,2.7888,2.7907,2.7889,2.797,2.7977,2.7983,2.8009,2.8019,2.7905,2.7905,2.7905,2.7905,0,2.7147,2.7215,2.7259,2.7348,2.7397,2.7463,2.7516,2.756,2.7582,2.7621,2.7705,2.7765,2.7841,2.7866,2.7888,2.7966,2.796,2.7961,2.7947,2.7992,2.8016,2.8026,2.7906,2.7906,2.7905,2.7905,0,0,2.7192,2.7306,2.7321,2.7362,2.7448,2.7501,2.7568,2.7644,2.7681,2.7743,2.7799,2.7893,2.7894,2.7939,2.7966,2.8006,2.8061,2.8002,2.8004,2.8011,2.8151,2.8149,2.816,2.807,2.8072,2.8074,2.8145,0,2.7257,2.738,2.7422,2.7523,2.7586,2.7615,2.7673,2.7731,2.7769,2.7828,2.7869,2.7935,2.7932,2.7959,2.8,2.8045,2.809,2.8041,2.8122,2.8125,2.8104,2.8173,2.8172,2.8237,2.8155,2.8156,2.8158,0,2.735,2.7415,2.7523,2.7601,2.7629,2.7681,2.7755,2.7811,2.7876,2.7901,2.7951,2.7976,2.8046,2.8028,2.8124,2.809,2.8126,2.8153,2.8156,2.8165,2.8144,2.8184,2.8258,2.8267,2.8173,2.8172,2.8171,0,2.7372,2.7486,2.7566,2.76,2.7693,2.7729,2.7769,2.7834,2.7877,2.7941,2.7969,2.8039,2.8077,2.813,2.8172,2.8155,2.8265,2.825,2.8287,2.8286,2.8308,2.8306,2.8389,2.8331,2.8331,2.8331,2.8331,0,2.744,2.7505,2.7577,2.7626,2.7699,2.7746,2.7817,2.7858,2.7916,2.7972,2.8,2.8052,2.8105,2.8163,2.8196,2.8271,2.8288,2.8309,2.8317,2.8307,2.8304,2.8331,2.8327,2.8334,2.8333,2.8333,2.8332,0,2.7477,2.7528,2.7617,2.7698,2.772,2.777,2.7839,2.7887,2.7927,2.7998,2.8017,2.8079,2.8149,2.8197,2.8286,2.8309,2.839,2.8397,2.8368,2.8372,2.8405,2.8401,2.8508,2.8524,2.8456,2.8456,2.8457,0,2.7517,2.7568,2.7655,2.7696,2.7737,2.7802,2.7847,2.7894,2.7939,2.8019,2.8057,2.8129,2.819,2.8301,2.8353,2.8421,2.843,2.8463,2.8441,2.8429,2.8431,2.8427,2.8432,2.8466,2.8467,2.8467,2.8468,0,2.7583,2.7606,2.7671,2.7744,2.7797,2.7857,2.7917,2.7948,2.8005,2.8054,2.8128,2.8175,2.8268,2.8339,2.8413,2.8452,2.8469,2.8474,2.8486,2.8476,2.8457,2.8468,2.8377,2.8472,2.8471,2.8471,2.8471,2.847,2.7623,2.767,2.7739,2.7809,2.786,2.7915,2.7964,2.8011,2.8073,2.8154,2.8177,2.8253,2.8318,2.8419,2.846,2.8519,2.8516,2.8533,2.8537,2.8541,2.8541,2.8448,2.8532,2.8532,2.8532,2.8532,2.8532,0,2.769,2.7737,2.7801,2.7885,2.794,2.7954,2.802,2.8065,2.8132,2.8192,2.8252,2.8336,2.8405,2.8463,2.8534,2.8571,2.858,2.8588,2.8585,2.8594,2.854,2.8522,2.8579,2.8579,2.8579,2.8579,2.8579,2.8579,2.7732,2.7812,2.7843,2.7948,2.7993,2.8069,2.8106,2.8157,2.8205,2.8298,2.8357,2.8394,2.8453,2.8529,2.8593,2.8608,2.8633,2.8639,2.8655,2.8603,2.8598,2.8593,2.8577,2.8644,2.8644,2.8705,2.8705,2.8706]}]]